Time,TemperatureF,DewpointF,PressureIn,WindDirection,WindDirectionDegrees,WindSpeedMPH,WindSpeedGustMPH,Humidity,HourlyPrecipIn,Conditions,Clouds,dailyrainin,SoftwareType,DateUTC
2013-03-06 00:11:00,23.9,22.0,30.09,NW,308,1.0,5.0,92,0.00,,,0.00,weatherlink.com 1.10,2013-03-06 06:11:00,
2013-03-06 00:26:00,24.3,22.0,30.10,WNW,296,1.0,4.0,92,0.00,,,0.00,weatherlink.com 1.10,2013-03-06 06:26:00,
2013-03-06 00:42:00,24.8,23.0,30.11,WNW,292,1.0,4.0,92,0.00,,,0.00,weatherlink.com 1.10,2013-03-06 06:42:00,
2013-03-06 00:56:00,25.2,23.0,30.11,North,355,1.0,4.0,92,0.00,,,0.00,weatherlink.com 1.10,2013-03-06 06:56:00,
2013-03-06 01:11:00,25.6,23.0,30.11,NNW,333,2.0,5.0,91,0.00,,,0.00,weatherlink.com 1.10,2013-03-06 07:11:00,
2013-03-06 01:26:00,25.8,24.0,30.11,NNW,327,1.0,5.0,91,0.00,,,0.00,weatherlink.com 1.10,2013-03-06 07:26:00,
2013-03-06 01:41:00,25.8,24.0,30.12,NNW,330,3.0,6.0,91,0.00,,,0.00,weatherlink.com 1.10,2013-03-06 07:41:00,
2013-03-06 01:56:00,25.9,23.0,30.13,NW,325,2.0,5.0,90,0.00,,,0.00,weatherlink.com 1.10,2013-03-06 07:56:00,
2013-03-06 02:11:00,25.8,23.0,30.12,NW,304,3.0,7.0,90,0.00,,,0.00,weatherlink.com 1.10,2013-03-06 08:11:00,
2013-03-06 02:26:00,25.6,23.0,30.12,NNW,340,3.0,4.0,90,0.00,,,0.00,weatherlink.com 1.10,2013-03-06 08:26:00,
2013-03-06 02:41:00,25.1,22.0,30.12,NNE,16,2.0,3.0,89,0.00,,,0.00,weatherlink.com 1.10,2013-03-06 08:41:00,
2013-03-06 02:56:00,24.4,22.0,30.13,WNW,288,1.0,3.0,90,0.00,,,0.00,weatherlink.com 1.10,2013-03-06 08:56:00,
2013-03-06 03:11:00,24.0,22.0,30.14,NW,314,1.0,3.0,91,0.00,,,0.00,weatherlink.com 1.10,2013-03-06 09:11:00,
2013-03-06 03:26:00,23.4,21.0,30.15,NNW,329,1.0,3.0,91,0.00,,,0.00,weatherlink.com 1.10,2013-03-06 09:26:00,
2013-03-06 03:41:00,22.8,21.0,30.16,NW,321,1.0,2.0,91,0.00,,,0.00,weatherlink.com 1.10,2013-03-06 09:41:00,
2013-03-06 03:56:00,22.3,20.0,30.16,NNW,337,3.0,3.0,92,0.00,,,0.00,weatherlink.com 1.10,2013-03-06 09:56:00,
2013-03-06 04:11:00,22.4,21.0,30.16,NW,312,0.0,3.0,92,0.00,,,0.00,weatherlink.com 1.10,2013-03-06 10:11:00,
2013-03-06 04:27:00,21.6,19.0,30.17,North,360,2.0,2.0,91,0.00,,,0.00,weatherlink.com 1.10,2013-03-06 10:27:00,
2013-03-06 04:42:00,21.5,20.0,30.18,NNW,345,1.0,2.0,92,0.00,,,0.00,weatherlink.com 1.10,2013-03-06 10:42:00,
2013-03-06 04:57:00,21.5,20.0,30.18,NW,304,1.0,2.0,92,0.00,,,0.00,weatherlink.com 1.10,2013-03-06 10:57:00,
2013-03-06 05:12:00,21.7,20.0,30.19,NNW,331,1.0,3.0,92,0.00,,,0.00,weatherlink.com 1.10,2013-03-06 11:12:00,
2013-03-06 05:27:00,22.3,20.0,30.20,WNW,302,3.0,4.0,92,0.00,,,0.00,weatherlink.com 1.10,2013-03-06 11:27:00,
2013-03-06 05:42:00,23.4,22.0,30.20,NW,325,1.0,5.0,92,0.00,,,0.00,weatherlink.com 1.10,2013-03-06 11:42:00,
2013-03-06 05:57:00,24.2,22.0,30.21,NW,315,1.0,5.0,91,0.00,,,0.00,weatherlink.com 1.10,2013-03-06 11:57:00,
2013-03-06 06:12:00,24.3,22.0,30.21,NNW,334,0.0,4.0,90,0.00,,,0.00,weatherlink.com 1.10,2013-03-06 12:12:00,
2013-03-06 06:27:00,24.4,22.0,30.22,NW,313,2.0,7.0,90,0.00,,,0.00,weatherlink.com 1.10,2013-03-06 12:27:00,
2013-03-06 06:42:00,24.5,22.0,30.23,NNW,332,1.0,6.0,90,0.00,,,0.00,weatherlink.com 1.10,2013-03-06 12:42:00,
2013-03-06 06:57:00,24.5,22.0,30.23,NNW,340,2.0,5.0,90,0.00,,,0.00,weatherlink.com 1.10,2013-03-06 12:57:00,
2013-03-06 07:12:00,24.7,22.0,30.23,WNW,301,2.0,8.0,89,0.00,,,0.00,weatherlink.com 1.10,2013-03-06 13:12:00,
2013-03-06 07:27:00,24.9,22.0,30.23,NNW,330,1.0,4.0,89,0.00,,,0.00,weatherlink.com 1.10,2013-03-06 13:27:00,
2013-03-06 07:42:00,25.2,22.0,30.23,NW,325,2.0,6.0,88,0.00,,,0.00,weatherlink.com 1.10,2013-03-06 13:42:00,
2013-03-06 07:57:00,25.5,23.0,30.24,NW,321,2.0,5.0,88,0.00,,,0.00,weatherlink.com 1.10,2013-03-06 13:57:00,
2013-03-06 08:12:00,25.8,23.0,30.25,NNW,339,1.0,6.0,87,0.00,,,0.00,weatherlink.com 1.10,2013-03-06 14:12:00,
2013-03-06 08:27:00,26.0,22.0,30.26,WNW,296,1.0,6.0,86,0.00,,,0.00,weatherlink.com 1.10,2013-03-06 14:27:00,
2013-03-06 08:42:00,26.3,23.0,30.26,NW,319,2.0,5.0,86,0.00,,,0.00,weatherlink.com 1.10,2013-03-06 14:42:00,
2013-03-06 08:57:00,26.3,23.0,30.26,NW,306,4.0,5.0,86,0.00,,,0.00,weatherlink.com 1.10,2013-03-06 14:57:00,
2013-03-06 09:12:00,26.6,23.0,30.27,NW,317,2.0,6.0,85,0.00,,,0.00,weatherlink.com 1.10,2013-03-06 15:12:00,
2013-03-06 09:27:00,27.0,23.0,30.27,NW,323,0.0,5.0,84,0.00,,,0.00,weatherlink.com 1.10,2013-03-06 15:27:00,
2013-03-06 09:42:00,27.3,23.0,30.27,WNW,296,1.0,8.0,83,0.00,,,0.00,weatherlink.com 1.10,2013-03-06 15:42:00,
2013-03-06 09:57:00,27.6,23.0,30.27,West,281,2.0,7.0,83,0.00,,,0.00,weatherlink.com 1.10,2013-03-06 15:57:00,
2013-03-06 10:12:00,27.8,23.0,30.27,NW,304,4.0,7.0,83,0.00,,,0.00,weatherlink.com 1.10,2013-03-06 16:12:00,
2013-03-06 10:27:00,27.8,23.0,30.27,WNW,292,4.0,6.0,81,0.00,,,0.00,weatherlink.com 1.10,2013-03-06 16:27:00,
2013-03-06 10:42:00,28.1,23.0,30.27,NW,306,3.0,8.0,80,0.01,,,0.01,weatherlink.com 1.10,2013-03-06 16:42:00,
2013-03-06 10:57:00,28.9,24.0,30.27,WNW,284,2.0,6.0,81,0.02,,,0.02,weatherlink.com 1.10,2013-03-06 16:57:00,
2013-03-06 11:12:00,29.2,24.0,30.28,NW,325,5.0,10.0,80,0.04,,,0.04,weatherlink.com 1.10,2013-03-06 17:12:00,
2013-03-06 11:27:00,29.3,24.0,30.28,NW,326,2.0,8.0,79,0.06,,,0.06,weatherlink.com 1.10,2013-03-06 17:27:00,
2013-03-06 11:42:00,29.1,24.0,30.28,NW,318,2.0,8.0,81,0.07,,,0.08,weatherlink.com 1.10,2013-03-06 17:42:00,
2013-03-06 11:57:00,29.2,24.0,30.28,WNW,283,2.0,7.0,81,0.07,,,0.09,weatherlink.com 1.10,2013-03-06 17:57:00,
2013-03-06 12:12:00,29.3,24.0,30.28,WNW,302,3.0,9.0,81,0.07,,,0.11,weatherlink.com 1.10,2013-03-06 18:12:00,
2013-03-06 12:27:00,29.9,24.0,30.27,NW,306,1.0,7.0,78,0.06,,,0.12,weatherlink.com 1.10,2013-03-06 18:27:00,
2013-03-06 12:42:00,30.9,25.0,30.27,WNW,302,2.0,7.0,78,0.06,,,0.14,weatherlink.com 1.10,2013-03-06 18:42:00,
2013-03-06 12:57:00,31.0,25.0,30.27,NW,318,1.0,6.0,78,0.07,,,0.16,weatherlink.com 1.10,2013-03-06 18:57:00,
2013-03-06 13:12:00,31.2,24.0,30.27,NW,305,3.0,7.0,76,0.06,,,0.17,weatherlink.com 1.10,2013-03-06 19:12:00,
2013-03-06 13:27:00,30.9,25.0,30.26,NW,309,2.0,7.0,77,0.06,,,0.18,weatherlink.com 1.10,2013-03-06 19:27:00,
2013-03-06 13:57:00,30.7,24.0,30.25,WNW,287,2.0,8.0,77,0.05,,,0.21,weatherlink.com 1.10,2013-03-06 19:57:00,
2013-03-06 14:12:00,30.5,24.0,30.26,West,275,3.0,6.0,77,0.05,,,0.22,weatherlink.com 1.10,2013-03-06 20:12:00,
2013-03-06 14:28:00,30.3,24.0,30.26,WNW,298,2.0,6.0,78,0.04,,,0.22,weatherlink.com 1.10,2013-03-06 20:28:00,
2013-03-06 14:43:00,30.5,24.0,30.26,WNW,286,2.0,5.0,78,0.04,,,0.23,weatherlink.com 1.10,2013-03-06 20:43:00,
2013-03-06 14:58:00,30.3,25.0,30.27,West,278,2.0,4.0,80,0.03,,,0.24,weatherlink.com 1.10,2013-03-06 20:58:00,
2013-03-06 15:13:00,30.1,25.0,30.27,WNW,298,2.0,4.0,80,0.02,,,0.24,weatherlink.com 1.10,2013-03-06 21:13:00,
2013-03-06 15:28:00,30.0,25.0,30.27,WNW,292,2.0,5.0,81,0.03,,,0.25,weatherlink.com 1.10,2013-03-06 21:28:00,
2013-03-06 15:43:00,29.8,24.0,30.27,WNW,284,2.0,5.0,80,0.02,,,0.25,weatherlink.com 1.10,2013-03-06 21:43:00,
2013-03-06 15:58:00,29.6,24.0,30.28,WNW,298,2.0,5.0,80,0.02,,,0.26,weatherlink.com 1.10,2013-03-06 21:58:00,
2013-03-06 16:13:00,29.4,24.0,30.27,WNW,286,1.0,5.0,81,0.02,,,0.26,weatherlink.com 1.10,2013-03-06 22:13:00,
2013-03-06 16:28:00,29.2,24.0,30.27,WNW,289,1.0,3.0,82,0.01,,,0.26,weatherlink.com 1.10,2013-03-06 22:28:00,
2013-03-06 16:43:00,28.8,24.0,30.28,West,279,1.0,3.0,82,0.01,,,0.26,weatherlink.com 1.10,2013-03-06 22:43:00,
2013-03-06 16:58:00,28.6,24.0,30.28,WNW,287,1.0,2.0,82,0.00,,,0.26,weatherlink.com 1.10,2013-03-06 22:58:00,
2013-03-06 17:13:00,28.4,24.0,30.27,WNW,295,1.0,3.0,82,0.01,,,0.27,weatherlink.com 1.10,2013-03-06 23:13:00,
2013-03-06 17:28:00,28.0,23.0,30.28,WNW,290,2.0,2.0,82,0.01,,,0.27,weatherlink.com 1.10,2013-03-06 23:28:00,
2013-03-06 17:43:00,27.7,23.0,30.29,West,273,1.0,2.0,83,0.01,,,0.27,weatherlink.com 1.10,2013-03-06 23:43:00,
2013-03-06 17:58:00,27.5,23.0,30.29,West,273,0.0,2.0,84,0.01,,,0.27,weatherlink.com 1.10,2013-03-06 23:58:00,
2013-03-06 18:13:00,27.3,23.0,30.29,West,273,0.0,1.0,85,0.00,,,0.27,weatherlink.com 1.10,2013-03-07 00:13:00,
2013-03-06 18:28:00,27.1,23.0,30.29,West,273,0.0,0.0,84,0.00,,,0.27,weatherlink.com 1.10,2013-03-07 00:28:00,
2013-03-06 18:58:00,26.9,23.0,30.29,West,273,0.0,1.0,84,0.00,,,0.27,weatherlink.com 1.10,2013-03-07 00:58:00,
2013-03-06 19:13:00,26.8,23.0,30.30,West,273,1.0,2.0,85,0.00,,,0.27,weatherlink.com 1.10,2013-03-07 01:13:00,
2013-03-06 19:28:00,26.7,23.0,30.30,West,273,0.0,2.0,85,0.00,,,0.27,weatherlink.com 1.10,2013-03-07 01:28:00,
2013-03-06 19:43:00,26.6,23.0,30.30,West,269,0.0,2.0,85,0.00,,,0.27,weatherlink.com 1.10,2013-03-07 01:43:00,
2013-03-06 19:58:00,26.5,23.0,30.29,West,269,0.0,1.0,85,0.00,,,0.27,weatherlink.com 1.10,2013-03-07 01:58:00,
2013-03-06 20:13:00,26.4,23.0,30.30,WSW,254,2.0,4.0,85,0.00,,,0.27,weatherlink.com 1.10,2013-03-07 02:13:00,
2013-03-06 20:43:00,26.2,22.0,30.30,WSW,255,1.0,2.0,85,0.00,,,0.27,weatherlink.com 1.10,2013-03-07 02:43:00,
2013-03-06 20:58:00,26.2,22.0,30.30,WSW,254,0.0,2.0,85,0.00,,,0.27,weatherlink.com 1.10,2013-03-07 02:58:00,
2013-03-06 21:13:00,26.2,22.0,30.30,WSW,255,1.0,2.0,85,0.00,,,0.27,weatherlink.com 1.10,2013-03-07 03:13:00,
2013-03-06 21:28:00,26.2,23.0,30.30,WSW,255,0.0,0.0,86,0.00,,,0.27,weatherlink.com 1.10,2013-03-07 03:28:00,
2013-03-06 21:43:00,26.1,22.0,30.30,WSW,255,0.0,0.0,85,0.00,,,0.27,weatherlink.com 1.10,2013-03-07 03:43:00,
2013-03-06 21:58:00,26.1,22.0,30.30,WSW,255,0.0,0.0,85,0.00,,,0.27,weatherlink.com 1.10,2013-03-07 03:58:00,
2013-03-06 22:13:00,26.2,22.0,30.30,West,261,0.0,0.0,84,0.00,,,0.27,weatherlink.com 1.10,2013-03-07 04:13:00,
2013-03-06 22:28:00,26.2,22.0,30.30,NW,316,0.0,0.0,84,0.00,,,0.27,weatherlink.com 1.10,2013-03-07 04:28:00,
2013-03-06 22:43:00,26.3,22.0,30.30,NW,319,0.0,0.0,84,0.00,,,0.27,weatherlink.com 1.10,2013-03-07 04:43:00,
2013-03-06 22:58:00,26.2,22.0,30.29,NW,313,0.0,0.0,84,0.00,,,0.27,weatherlink.com 1.10,2013-03-07 04:58:00,
2013-03-06 23:13:00,26.1,22.0,30.29,NW,313,0.0,0.0,84,0.00,,,0.27,weatherlink.com 1.10,2013-03-07 05:13:00,
2013-03-06 23:28:00,26.1,22.0,30.29,NW,325,0.0,2.0,83,0.00,,,0.27,weatherlink.com 1.10,2013-03-07 05:28:00,
2013-03-06 23:43:00,26.1,22.0,30.30,NW,325,0.0,1.0,83,0.00,,,0.27,weatherlink.com 1.10,2013-03-07 05:43:00,
2013-03-06 23:58:00,26.2,22.0,30.30,NW,321,0.0,2.0,83,0.00,,,0.27,weatherlink.com 1.10,2013-03-07 05:58:00,